Regional Weather Roundup
Issued by NWS

Home | Current Version | Previous Version | Graphics & Text | Print | Product List | Glossary On
Versions: 1 2 3 4 5 6 7 8 9 10 11 12 13 14 15 16 17 18 19 20 21 22 23 24 25 26 27 28 29 30 31 32 33 34 35 36 37 38 39 40 41 42 43 44 45 46 47 48 49 50
000
ASUS43 KMKX 310221
RWRWI

WISCONSIN REGIONAL WEATHER ROUNDUP
NATIONAL WEATHER SERVICE MILWAUKEE/SULLIVAN WI
900 PM CDT SAT AUG 30 2014

NOTE: "FAIR" INDICATES FEW OR NO CLOUDS BELOW 12,000 FEET WITH NO
SIGNIFICANT WEATHER AND/OR OBSTRUCTIONS TO VISIBILITY.

WIZ001-002-006>008-014>016-023>028-310300-
NORTHWEST WISCONSIN

CITY           SKY/WX    TMP DP  RH WIND       PRES   REMARKS
SUPERIOR ARPT  CLOUDY    63  61  93 E5        29.90S
ASHLAND        CLOUDY    61  58  90 NE3       29.94R
HAYWARD        CLOUDY    61  58  90 NE6       29.93R
SIREN          PTCLDY    64  61  90 E3        29.90R
RICE LAKE      CLEAR     61  59  92 NE5       29.92R
LADYSMITH      PTCLDY    62  59  90 NE6       29.93R
EAU CLAIRE     CLEAR     63  61  93 CALM      29.89R
MENOMONIE      CLEAR     63  61  91 CALM      29.89R
NEW RICHMOND   CLEAR     62  61  95 CALM      29.90R
OSCEOLA        MOCLDY    63  63 100 CALM      29.92R
$$

WIZ003>005-009-010-017-018-310300-
NORTH CENTRAL WISCONSIN

CITY           SKY/WX    TMP DP  RH WIND       PRES   REMARKS
WOODRUFF       CLOUDY    59  57  91 N5        29.92R
RHINELANDER    CLOUDY    58  55  90 CALM      29.93R
EAGLE RIVER    CLOUDY    57  57 100 N6        29.92R
LAND O LAKES   CLOUDY    58  56  94 CALM      29.93R
PHILLIPS       CLOUDY    60  57  91 N3        29.92R
TOMAHAWK       CLOUDY    59  56  91 CALM      29.92R
MEDFORD        MOCLDY    60  58  93 NE5       29.91R
MERRILL        CLOUDY    62  60  92 N3        29.91R
$$

WIZ029-030-035-036-043>047-310300-
CENTRAL WISCONSIN

CITY           SKY/WX    TMP DP  RH WIND       PRES   REMARKS
WAUSAU         CLOUDY    64  59  83 N7        29.89R
MOSINEE        CLOUDY    64  63  94 N6        29.91R
MARSHFIELD     CLOUDY    65  60  84 N7        29.90R
STEVENS POINT  PTCLDY    64  60  88 CALM      29.90R
WAUPACA        CLOUDY    69  65  88 N5        29.88R
WAUTOMA        MOCLDY    70  65  84 N6        29.88R
WISC RAPIDS    PTCLDY    66  62  87 N5        29.90R
CAMP DOUGLAS   PTCLDY    66  66 100 NW2       29.89R
$$

WIZ011>013-019>022-031-037>040-048>050-310300-
NORTHEAST WISCONSIN

CITY           SKY/WX    TMP DP  RH WIND       PRES   REMARKS
ANTIGO         CLOUDY    61  58  91 N6        29.91R
STURGEON BAY   CLOUDY    64  61  88 N10       29.87R
GREEN BAY      CLOUDY    68  66  93 N7        29.87R
MANITOWOC      CLEAR     69  66  90 NW6       29.86R
APPLETON       MOCLDY    68  64  88 N12       29.87R
CLINTONVILLE   CLOUDY    66  63  88 N6        29.88R
OSHKOSH        MOCLDY    71  66  84 NW7       29.87R
$$

WIZ032>034-041-042-053>061-310300-
SOUTHWEST WISCONSIN

CITY           SKY/WX    TMP DP  RH WIND       PRES   REMARKS
LA CROSSE      PTCLDY    70  64  81 CALM      29.87R
SPARTA         CLOUDY    68  63  84 NE7       29.90R
VIROQUA        FAIR      66  66 100 N3        29.89S
BOSCOBEL       CLEAR     70  67  90 CALM      29.87R
PRAIRIE DU CHI MOCLDY    73  66  79 E3        29.86R
PLATTEVILLE    FAIR      69  67  92 CALM      29.90R
$$

WIZ056-057-062-063-064-067-068-310300-
SOUTH CENTRAL WISCONSIN

CITY           SKY/WX    TMP DP  RH WIND       PRES   REMARKS
BARABOO/DELLS  MOCLDY    71  65  81 NW3       29.88R
LONE ROCK      CLEAR     74  67  78 CALM      29.87R
WATERTOWN      CLEAR     68  67  98 CALM      29.87R
MADISON        PTCLDY    69  65  86 CALM      29.88R
MIDDLETON      FAIR      69  68  94 CALM      29.88S
MONROE         CLEAR     70  66  88 SW7       29.90R
JANESVILLE     PTCLDY    72  66  83 SW7       29.88R
$$

WIZ051-052-058>065-066-070>072-310300-
SOUTHEAST WISCONSIN

CITY           SKY/WX    TMP DP  RH WIND       PRES   REMARKS
MILWAUKEE      PTCLDY    74  68  81 W5        29.87R
WAUKESHA       MOCLDY    68  66  94 CALM      29.89
MILWAUKEE/TIMM CLEAR     72  64  78 CALM      29.87R
RACINE         CLEAR     71  66  84 SW3       29.89R
BURLINGTON     CLEAR     65  63  96 S3        29.89R
KENOSHA        CLEAR     70  67  90 SW6       29.89R
FOND DU LAC    MOCLDY    70  67  90 CALM      29.87R
SHEBOYGAN      CLEAR     66  64  93 SW6       29.87R
WEST BEND      CLEAR     68  63  83 SW3       29.88R
JUNEAU         CLEAR     67  66  97 CALM      29.89R
$$

LSZ147-162-310300-
LAKE SUPERIOR

STATION/POSITION TIME  TEMP    WIND        PRES    WAVE
                       AIR SEA DIR/SP/G            HT/PER
                 (UTC) (F)     (DEG/KT/KT) (MB)    (FT/S)
W MID LAKE BUOY  0150   58 58  300/  4/  6 1012.9R   1/ 3
DEVILS ISLAND    0200   61     190/  4/  4 1013.3R
PORT WING        0100   63     120/  2/  4 1013.2R
SAXON HARBOR     0100   60        CALM     1012.9R
$$

LMZ867-665-643>646-310300-
LAKE MICHIGAN

STATION/POSITION TIME  TEMP    WIND        PRES    WAVE
                       AIR SEA DIR/SP/G            HT/PER
                 (UTC) (F)     (DEG/KT/KT) (MB)    (FT/S)
N MID LAKE BUOY  0150   63 65  310/ 16/ 17 1009.4R   4/ 4
NORTHPORT PIER   0100   66     310/ 15/ 18 1009.5R
SISTER BAY       0041   65     350/ 17/ 20   N/A
ALGOMA LAKESHORE 0038          340/ 10/ 14   N/A
KEWAUNEE LAKESHO 0200   68     340/  4/  6 1010.2R
SHEBOYGAN LAKESH 0200   71 50  250/  5/  5 1011.2R
ATWATER BUOY     0200   70     200/  2/  4 1012.5R
MILWAUKEE LAKESH 0200   74        CALM       N/A
S MID LAKE BUOY  0150   72 69  260/  8/ 10 1011.4R   2/ 5
KENOSHA   LAKESH 0200   77     240/  6/  9 1011.5R
$$

TC  - TEMPERATURE IN CELSIUS
VSB - VISIBILITY IN STATUTE MILES
WCI - WIND CHILL INDEX
HX  - HEAT INDEX




USA.gov is the U.S. government's official web portal to all federal, state and local government web resources and services.